Location: Newark
(41.2758°N, 92.6808°W)
Time: 00:31:59
(UTC+00:00)

Envisat - Pass Details

Date: 01 October 2019
Orbit: 764 x 766 km, 98.1° (Epoch: 19 October)

Event Time Altitude Azimuth Distance (km) Brightness Sun altitude
Rises 00:50:55 0° 184° (S) 3,217 6.2 -11.4°
Reaches altitude 10° 00:53:19 10° 191° (SSW) 2,296 5.5 -11.9°
Maximum altitude 00:58:06 42° 262° (W) 1,091 4.4 -12.8°
Drops below altitude 10° 01:02:55 10° 333° (NNW) 2,310 6.0 -13.7°
Sets 01:05:21 0° 340° (NNW) 3,241 6.6 -14.1°
